[[{"header":{"parameterUnit":"m.s-1","parameterCategory":1,"la1":30.2992,"la2":30.254,"lo1":-89.0895,"lo2":-89.0443,"dy":0.0025,"dx":0.0025,"nx":19,"ny":19,"refTime":"2026-03-23T21:00:00:Z","depth":0,"parameterNumber":2,"parameterNumberName":"U-component_of_WINDS"},"data":[0,0,0,-2.3546,-2.3549,-2.3703,-2.3704,-2.3901,-2.3902,0,0,0,0,0,0,0,0,0,0,0,-2.3498,-2.3499,-2.3545,-2.3549,-2.3703,-2.3704,-2.39,-2.3902,0,0,0,0,0,0,0,0,0,0,0,-2.3498,-2.3499,-2.3501,-2.355,-2.3703,-2.3704,-2.39,-2.3784,0,0,0,0,0,0,0,0,0,0,-2.3635,-2.3588,-2.3499,-2.3501,-2.3551,-2.3703,-2.3704,-2.3779,-2.3791,-2.383,0,-2.3862,0,-2.3885,-2.3915,-2.3916,0,0,0,-2.3551,-2.3578,-2.3621,-2.3501,-2.3552,-2.3702,-2.3634,-2.3786,-2.38,-2.3847,-2.3865,-2.3873,-2.3889,-2.3917,-2.3918,-2.4131,-2.4132,0,0,-2.3543,-2.3525,-2.3611,-2.363,-2.3604,-2.3629,-2.3639,-2.3795,-2.3814,-2.3866,-2.3877,-2.3892,-2.3918,-2.3919,-2.413,-2.4131,0,0,0,-2.3517,-2.3519,-2.3559,-2.3622,-2.365,-2.3634,-2.3645,-2.3807,-2.3821,-2.388,-2.3894,-2.3919,-2.3921,-2.4129,-2.4131,-2.4158,0,0,0,-2.3512,-2.3504,-2.3555,-2.3546,-2.3647,-2.373,-2.3654,-2.381,-2.3829,-2.3893,-2.3919,-2.3923,-2.4128,-2.413,-2.4155,-2.4175,0,0,0,-2.3489,-2.3501,-2.3523,-2.3544,-2.3609,-2.3728,-2.3751,-2.3815,-2.3838,-2.3916,-2.3924,-2.4128,-2.413,-2.4153,-2.4171,-2.4227,0,0,0,-2.346,-2.3545,-2.3523,-2.3625,-2.3608,-2.3742,-2.375,-2.3852,-2.3922,-2.392,-2.4129,-2.4131,-2.4152,-2.4168,-2.4224,-2.4271,-2.4289,0,0,-2.3558,-2.3556,-2.3618,-2.3602,-2.3736,-2.372,-2.386,-2.3942,-2.3966,-2.4075,-2.4081,-2.4156,-2.417,-2.4226,-2.4393,-2.4406,0,0,0,-2.3643,-2.3687,-2.3726,-2.3792,-2.3856,-2.3913,-2.3975,-2.4006,-2.41,-2.4018,-2.4192,-2.4201,-2.4234,-2.4258,-2.427,-2.43,-2.414,-2.414,-2.414,-2.3758,-2.3783,-2.3887,-2.3932,-2.3996,-2.4059,-2.4115,-2.4167,-2.4175,-2.4216,-2.4249,-2.4346,-2.4373,-2.4382,-2.4414,-2.4275,-2.4275,-2.4275,-2.4275,-2.3905,-2.3972,-2.398,-2.4084,-2.4111,-2.4199,-2.4265,-2.4268,-2.4355,-2.4323,-2.4354,-2.4318,-2.4396,-2.4426,-2.4278,-2.4277,-2.4277,-2.4277,-2.4276,-2.3984,-2.4021,-2.4056,-2.4154,-2.4228,-2.4271,-2.4354,-2.4377,-2.4398,-2.4429,-2.4467,-2.4467,-2.447,-2.4445,-2.4445,-2.4446,-2.4446,-2.4446,-2.4446,-2.4052,-2.4091,-2.4158,-2.4233,-2.4279,-2.4343,-2.4408,-2.4455,-2.4512,-2.4522,-2.4523,-2.4528,-2.4399,-2.4366,-2.4452,-2.4451,-2.445,-2.445,-2.4449,-2.4194,-2.4166,-2.4269,-2.4315,-2.4406,-2.4479,-2.4506,-2.4599,-2.4641,-2.4682,-2.468,-2.4581,-2.4582,-2.4572,-2.4546,-2.4673,-2.4673,-2.4673,-2.4673,-2.4262,-2.4264,-2.4375,-2.4447,-2.4521,-2.4556,-2.4674,-2.4727,-2.4777,-2.4805,-2.479,-2.4756,-2.4746,-2.4753,-2.474,-2.4716,-2.4883,-2.4883,-2.4883,-2.4352,-2.4362,-2.4457,-2.4504,-2.4578,-2.4641,-2.4754,-2.4838,-2.4889,-2.4892,-2.4828,-2.4819,-2.4765,-2.4746,-2.4748,-2.4727,-2.4684,0,0]},{"header":{"parameterUnit":"m.s-1","parameterCategory":1,"la1":30.2992,"la2":30.254,"lo1":-89.0895,"lo2":-89.0443,"dy":0.0025,"dx":0.0025,"nx":19,"ny":19,"refTime":"2026-03-23T21:00:00:Z","depth":0,"parameterNumber":3,"parameterNumberName":"V-component_of_WINDS"},"data":[0,0,0,-4.0244,-4.0246,-4.0351,-4.0352,-4.049,-4.0491,0,0,0,0,0,0,0,0,0,0,0,-4.0216,-4.0218,-4.0243,-4.0246,-4.0351,-4.0352,-4.049,-4.0491,0,0,0,0,0,0,0,0,0,0,0,-4.0216,-4.0217,-4.0219,-4.0247,-4.0351,-4.0352,-4.0489,-4.0408,0,0,0,0,0,0,0,0,0,0,-4.0305,-4.0284,-4.0217,-4.0219,-4.0247,-4.0351,-4.0352,-4.0404,-4.0413,-4.0444,0,-4.0475,0,-4.0485,-4.0501,-4.0501,0,0,0,-4.0243,-4.0277,-4.0302,-4.0219,-4.0248,-4.0351,-4.0303,-4.0409,-4.042,-4.0456,-4.0476,-4.0481,-4.0488,-4.0502,-4.0502,-4.0697,-4.0698,0,0,-4.0237,-4.0237,-4.0295,-4.0309,-4.0295,-4.03,-4.0306,-4.0415,-4.0437,-4.0477,-4.0485,-4.049,-4.0503,-4.0504,-4.0696,-4.0697,0,0,0,-4.0223,-4.0233,-4.0255,-4.0303,-4.0322,-4.0303,-4.031,-4.0432,-4.0439,-4.0486,-4.0491,-4.0504,-4.0505,-4.0695,-4.0696,-4.0751,0,0,0,-4.0219,-4.0225,-4.0253,-4.0254,-4.032,-4.0379,-4.0324,-4.0431,-4.0444,-4.0491,-4.0504,-4.0507,-4.0694,-4.0696,-4.0747,-4.0776,0,0,0,-4.0208,-4.0223,-4.024,-4.0254,-4.0299,-4.0377,-4.039,-4.0434,-4.0447,-4.0501,-4.0507,-4.0693,-4.0695,-4.0743,-4.077,-4.0828,0,0,0,-4.0196,-4.0286,-4.0241,-4.0343,-4.0299,-4.041,-4.039,-4.0472,-4.0525,-4.0504,-4.0694,-4.0696,-4.0742,-4.0767,-4.0824,-4.0878,-4.09,0,0,-4.0309,-4.0299,-4.0359,-4.0322,-4.0442,-4.0394,-4.0521,-4.0568,-4.0572,-4.0655,-4.0659,-4.0748,-4.077,-4.0827,-4.1022,-4.1039,0,0,0,-4.0395,-4.0438,-4.047,-4.0521,-4.056,-4.0596,-4.0624,-4.0642,-4.0712,-4.0615,-4.0784,-4.0797,-4.0831,-4.0856,-4.0871,-4.09,-4.0708,-4.0708,-4.0707,-4.0555,-4.0557,-4.0656,-4.0671,-4.072,-4.0749,-4.0789,-4.0817,-4.0802,-4.0842,-4.0867,-4.0985,-4.1015,-4.1026,-4.1056,-4.0895,-4.0895,-4.0895,-4.0895,-4.0721,-4.0783,-4.0763,-4.0853,-4.0853,-4.0927,-4.0958,-4.0945,-4.1014,-4.0966,-4.0996,-4.0945,-4.1046,-4.1072,-4.0899,-4.0899,-4.0898,-4.0898,-4.0897,-4.0827,-4.0857,-4.0877,-4.0952,-4.1009,-4.1019,-4.1087,-4.1084,-4.1082,-4.1111,-4.1137,-4.1136,-4.1136,-4.1124,-4.1124,-4.1124,-4.1125,-4.1125,-4.1125,-4.0928,-4.095,-4.1008,-4.1058,-4.1091,-4.1133,-4.1162,-4.1194,-4.1228,-4.122,-4.1221,-4.1203,-4.1055,-4.1018,-4.1132,-4.1131,-4.113,-4.1129,-4.1129,-4.1098,-4.1059,-4.1149,-4.1182,-4.124,-4.1297,-4.1293,-4.1357,-4.1382,-4.1416,-4.1391,-4.1282,-4.1271,-4.126,-4.1229,-4.139,-4.139,-4.139,-4.139,-4.1188,-4.1182,-4.1274,-4.1327,-4.1378,-4.1384,-4.1484,-4.1507,-4.1524,-4.154,-4.1516,-4.1475,-4.1463,-4.1459,-4.1443,-4.1415,-4.1619,-4.162,-4.162,-4.1292,-4.1291,-4.1378,-4.1397,-4.1442,-4.148,-4.1574,-4.1634,-4.1645,-4.1629,-4.1552,-4.1542,-4.1476,-4.1455,-4.1438,-4.1412,-4.136,0,0]}]]